QPF
0.00 0.00 0.00 0.00 0.00 0.00 0.00 0.00 0.00 0.00 0.00 0.00 0.00 0.00 0.00 0.00 0.00 0.00 0.00 0.00 0.00 0.00 0.00 0.00 0.00 0.00 0.00 0.00 0.00 0.00 0.00 0.00 0.00 0.00 0.00 0.00 0.00 0.00 0.00 0.00 0.00 0.00
0.00 0.00 0.00 0.00 0.00 0.00 0.00 0.00 0.00 0.00 0.00 0.00 0.00 0.00 0.00 0.00 0.00 0.00 0.00 0.00 0.00 0.00 0.00 0.00 0.00 0.00 0.00 0.00 0.00 0.00 0.00 0.00 0.00 0.00 0.00 0.00 0.00 0.00 0.00 0.00 0.00 0.00
0.00 0.00 0.00 0.00 0.00 0.00 0.00 0.00 0.00 0.00 0.00 0.00 0.00 0.00 0.00 0.00 0.00 0.00 0.00 0.00 0.00 0.00 0.00 0.00 0.00 0.00 0.00 0.00 0.00 0.00 0.00 0.00 0.00 0.00 0.00 0.00 0.00 0.00 0.00 0.00 0.00 0.00
0.00 0.00 0.00 0.00 0.00 0.00 0.00 0.00 0.00 0.00 0.00 0.00 0.00 0.00 0.00 0.00 0.00 0.00 0.00 0.00 0.00 0.00 0.00 0.00 0.00 0.00 0.00 0.00 0.00 0.00 0.00 0.00 0.00 0.00 0.00 0.00 0.00 0.00 0.00 0.00 0.00 0.00
0.00 0.00 0.00 0.00 0.00 0.00 0.00 0.00 0.00 0.00 0.00 0.00 0.00 0.00 0.00 0.00 0.00 0.00 0.00 0.00 0.00 0.00 0.00 0.00 0.00 0.00 0.00 0.00 0.00 0.00 0.00 0.00 0.00 0.00 0.00 0.00 0.00 0.00 0.00 0.00 0.00 0.00
0.00 0.00 0.00 0.00 0.00 0.00 0.00 0.00 0.00 0.00 0.00 0.00 0.00 0.00 0.00 0.00 0.00 0.00 0.00 0.00 0.00 0.00 0.00 0.00 0.00 0.00 0.00 0.00 0.00 0.00 0.00 0.00 0.00 0.00 0.00 0.00 0.00 0.00 0.00 0.00 0.00 0.00
0.00 0.00 0.00 0.00 0.00 0.00 0.00 0.00 0.00 0.00 0.00 0.00 0.00 0.00 0.00 0.00 0.00 0.00 0.00 0.00 0.00 0.00 0.00 0.00 0.00 0.00 0.00 0.00 0.00 0.00 0.00 0.00 0.00 0.00 0.00 0.00 0.00 0.00 0.00 0.00 0.00 0.00
0.00 0.00 0.00 0.00 0.00 0.00 0.00 0.00 0.00 0.00 0.00 0.00 0.00 0.00 0.00 0.00 0.00 0.00 0.00 0.00 0.00 0.00 0.00 0.00 0.00 0.00 0.00 0.00 0.00 0.00 0.00 0.00 0.00 0.00 0.00 0.00 0.00 0.00 0.00 0.00 0.00 0.00
0.00 0.00 0.00 0.00 0.00 0.00 0.00 0.00 0.00 0.00 0.00 0.00 0.00 0.00 0.00 0.00 0.00 0.00 0.00 0.00 0.00 0.00 0.00 0.00 0.00 0.00 0.00 0.00 0.00 0.00 0.00 0.00 0.00 0.00 0.00 0.00 0.00 0.00 0.00 0.00 0.00 0.00
0.00 0.00 0.00 0.00 0.00 0.00 0.00 0.00 0.00 0.00 0.00 0.00 0.00 0.00 0.00 0.00 0.00 0.00 0.00 0.00 0.00 0.00 0.00 0.00 0.00 0.00 0.00 0.00 0.00 0.00 0.00 0.00 0.00 0.00 0.00 0.00 0.00 0.00 0.00 0.00 0.00 0.00
0.00 0.00 0.00 0.00 0.00 0.00 0.00 0.00 0.00 0.00 0.00 0.00 0.00 0.00 0.00 0.00 0.00 0.00 0.00 0.00 0.00 0.00 0.00 0.00 0.00 0.00 0.00 0.00 0.00 0.00 0.00 0.00 0.00 0.00 0.00 0.00 0.00 0.00 0.00 0.00 0.00 0.00
0.00 0.00 0.00 0.00 0.00 0.00 0.00 0.00 0.00 0.00 0.00 0.00 0.00 0.00 0.00 0.00 0.00 0.00 0.00 0.00 0.00 0.00 0.00 0.00 0.00 0.00 0.00 0.00 0.00 0.00 0.00 0.00 0.00 0.00 0.00 0.00 0.00 0.00 0.00 0.00 0.00 0.00
0.00 0.00 0.00 0.00 0.00 0.00 0.00 0.00 0.00 0.00 0.00 0.00 0.00 0.00 0.00 0.00 0.00 0.00 0.00 0.00 0.00 0.00 0.00 0.00 0.00 0.00 0.00 0.00 0.00 0.00 0.00 0.00 0.00 0.00 0.00 0.00 0.00 0.00 0.00 0.00 0.00 0.01
0.00 0.00 0.00 0.00 0.00 0.00 0.00 0.00 0.00 0.00 0.00 0.00 0.00 0.00 0.00 0.00 0.00 0.00 0.00 0.00 0.00 0.00 0.00 0.00 0.00 0.00 0.00 0.00 0.00 0.00 0.00 0.00 0.00 0.01 0.01 0.00 0.00 0.00 0.00 0.01 0.01 0.01
0.00 0.00 0.00 0.00 0.00 0.00 0.00 0.00 0.00 0.00 0.00 0.00 0.00 0.00 0.00 0.00 0.00 0.00 0.00 0.00 0.00 0.00 0.00 0.00 0.00 0.00 0.00 0.00 0.00 0.00 0.00 0.01 0.01 0.02 0.02 0.01 0.01 0.01 0.01 0.01 0.00 0.00
0.00 0.00 0.00 0.00 0.00 0.00 0.00 0.00 0.00 0.00 0.00 0.00 0.00 0.00 0.00 0.00 0.00 0.00 0.00 0.00 0.00 0.00 0.00 0.00 0.00 0.00 0.00 0.00 0.00 0.01 0.02 0.02 0.02 0.02 0.02 0.02 0.02 0.01 0.01 0.00 0.00 0.00
0.00 0.00 0.00 0.00 0.00 0.00 0.00 0.00 0.00 0.00 0.00 0.00 0.00 0.00 0.00 0.00 0.00 0.00 0.00 0.00 0.00 0.00 0.00 0.00 0.00 0.00 0.00 0.00 0.01 0.02 0.02 0.03 0.03 0.03 0.03 0.02 0.02 0.02 0.01 0.00 0.00 0.00
0.00 0.00 0.00 0.00 0.00 0.00 0.00 0.00 0.00 0.00 0.00 0.00 0.00 0.00 0.00 0.00 0.00 0.00 0.00 0.00 0.00 0.00 0.00 0.00 0.00 0.00 0.00 0.01 0.01 0.02 0.02 0.03 0.03 0.03 0.03 0.02 0.02 0.01 0.01 0.00 0.00 0.00
0.00 0.00 0.00 0.00 0.00 0.00 0.00 0.00 0.00 0.00 0.00 0.00 0.00 0.00 0.00 0.00 0.00 0.00 0.00 0.00 0.00 0.00 0.00 0.00 0.00 0.00 0.00 0.01 0.01 0.02 0.02 0.03 0.03 0.03 0.03 0.02 0.02 0.01 0.01 0.00 0.00 0.00
0.00 0.00 0.00 0.00 0.00 0.00 0.00 0.00 0.00 0.00 0.00 0.00 0.00 0.00 0.00 0.00 0.00 0.00 0.00 0.00 0.00 0.00 0.00 0.00 0.00 0.00 0.00 0.01 0.01 0.02 0.02 0.03 0.03 0.03 0.02 0.01 0.01 0.00 0.00 0.00 0.00 0.00
0.00 0.00 0.00 0.00 0.00 0.00 0.00 0.00 0.00 0.00 0.00 0.00 0.00 0.00 0.00 0.00 0.00 0.00 0.00 0.00 0.00 0.00 0.00 0.00 0.00 0.00 0.00 0.01 0.01 0.02 0.02 0.02 0.02 0.02 0.01 0.01 0.00 0.00 0.00 0.00 0.00 0.00
0.00 0.00 0.00 0.00 0.00 0.00 0.00 0.00 0.00 0.00 0.00 0.00 0.00 0.00 0.00 0.00 0.00 0.00 0.00 0.00 0.00 0.00 0.00 0.00 0.00 0.00 0.00 0.01 0.01 0.01 0.02 0.02 0.02 0.01 0.01 0.00 0.00 0.00 0.00 0.00 0.00 0.00
0.00 0.00 0.00 0.00 0.00 0.00 0.00 0.00 0.00 0.00 0.00 0.00 0.00 0.00 0.00 0.00 0.00 0.00 0.00 0.00 0.00 0.00 0.00 0.00 0.00 0.00 0.00 0.00 0.01 0.01 0.02 0.02 0.02 0.02 0.01 0.00 0.00 0.00 0.00 0.00 0.00 0.00
0.00 0.00 0.00 0.00 0.00 0.00 0.00 0.00 0.00 0.00 0.00 0.00 0.00 0.00 0.00 0.00 0.00 0.00 0.00 0.00 0.00 0.00 0.00 0.00 0.00 0.00 0.00 0.00 0.00 0.01 0.01 0.02 0.02 0.01 0.01 0.00 0.00 0.00 0.00 0.00 0.00 0.00
0.00 0.00 0.00 0.00 0.00 0.00 0.00 0.00 0.00 0.00 0.00 0.00 0.00 0.00 0.00 0.00 0.00 0.00 0.00 0.00 0.00 0.00 0.00 0.00 0.00 0.00 0.00 0.00 0.00 0.01 0.01 0.02 0.02 0.02 0.01 0.00 0.00 0.00 0.00 0.00 0.00 0.00
0.00 0.00 0.00 0.00 0.00 0.00 0.00 0.00 0.00 0.00 0.00 0.00 0.00 0.00 0.00 0.00 0.00 0.00 0.00 0.00 0.00 0.00 0.00 0.00 0.00 0.00 0.00 0.00 0.00 0.00 0.01 0.02 0.02 0.01 0.00 0.00 0.00 0.00 0.00 0.00 0.00 0.00
MSLP
1046.63 1046.51 1046.51 1046.43 1046.55 1046.71 1046.79 1046.79 1046.83 1046.79 1046.71 1046.71 1046.55 1046.51 1046.43 1046.39 1046.43 1046.31 1046.19 1046.03 1045.95 1045.79 1045.63 1045.47 1045.27 1045.19 1044.99 1044.63 1044.35 1043.99 1043.51 1043.19 1042.99 1042.75 1042.67 1042.51 1042.35 1042.15 1042.07 1041.91 1041.71 1041.27
1046.79 1046.83 1046.79 1046.83 1046.79 1046.91 1047.03 1046.95 1047.15 1046.99 1046.95 1046.91 1046.83 1046.71 1046.59 1046.55 1046.55 1046.35 1046.23 1046.07 1045.91 1045.71 1045.59 1045.43 1045.27 1045.15 1044.91 1044.59 1044.35 1043.95 1043.39 1043.07 1043.11 1042.79 1042.55 1042.55 1042.27 1041.87 1041.83 1041.71 1041.47 1041.11
1046.87 1046.91 1047.03 1047.19 1047.15 1047.23 1047.27 1047.19 1047.19 1047.11 1047.03 1047.07 1046.99 1046.83 1046.79 1046.71 1046.63 1046.39 1046.19 1046.11 1045.87 1045.67 1045.47 1045.31 1045.19 1045.03 1044.87 1044.63 1044.35 1043.87 1043.43 1043.31 1043.11 1042.79 1042.67 1042.51 1042.19 1042.03 1041.87 1041.67 1041.39 1041.27
1047.03 1047.19 1047.27 1047.35 1047.27 1047.35 1047.27 1047.27 1047.27 1047.15 1047.11 1047.11 1047.03 1047.03 1046.91 1046.83 1046.63 1046.47 1046.23 1046.07 1045.87 1045.67 1045.43 1045.23 1045.07 1044.87 1044.75 1044.59 1044.35 1043.87 1043.59 1043.31 1043.07 1042.95 1042.79 1042.47 1042.31 1042.19 1042.11 1041.87 1041.63 1041.43
1047.39 1047.51 1047.39 1047.39 1047.35 1047.35 1047.39 1047.35 1047.35 1047.31 1047.35 1047.27 1047.15 1047.07 1046.95 1046.83 1046.67 1046.43 1046.23 1046.11 1045.87 1045.71 1045.47 1045.27 1045.07 1044.91 1044.75 1044.47 1044.27 1043.83 1043.51 1043.11 1042.95 1042.95 1042.95 1042.83 1042.59 1042.39 1042.31 1042.03 1041.91 1041.71
1047.67 1047.59 1047.63 1047.55 1047.51 1047.51 1047.47 1047.43 1047.47 1047.43 1047.47 1047.31 1047.19 1047.15 1046.99 1046.87 1046.71 1046.51 1046.31 1046.11 1045.91 1045.67 1045.51 1045.31 1045.11 1044.95 1044.75 1044.55 1044.23 1043.83 1043.59 1043.35 1043.19 1043.27 1043.23 1043.07 1042.75 1042.47 1042.35 1042.31 1042.07 1041.79
1047.83 1047.75 1047.83 1047.71 1047.75 1047.67 1047.63 1047.59 1047.59 1047.55 1047.51 1047.39 1047.31 1047.31 1047.03 1046.95 1046.71 1046.55 1046.31 1046.15 1045.95 1045.71 1045.47 1045.31 1045.11 1044.95 1044.71 1044.51 1044.23 1043.95 1043.83 1043.71 1043.63 1043.47 1043.27 1043.03 1042.71 1042.55 1042.35 1042.19 1041.91 1041.59
1048.03 1047.99 1047.95 1047.87 1047.91 1047.75 1047.67 1047.63 1047.63 1047.55 1047.51 1047.47 1047.39 1047.19 1046.99 1046.91 1046.71 1046.51 1046.31 1046.11 1045.91 1045.67 1045.43 1045.23 1045.03 1044.79 1044.63 1044.43 1044.23 1044.07 1043.87 1043.71 1043.55 1043.35 1043.19 1042.95 1042.71 1042.43 1042.23 1041.99 1041.71 1041.39
1047.95 1047.95 1047.87 1047.91 1047.87 1047.75 1047.63 1047.67 1047.59 1047.51 1047.47 1047.43 1047.35 1047.15 1046.91 1046.79 1046.63 1046.43 1046.23 1046.03 1045.87 1045.63 1045.35 1045.19 1044.95 1044.71 1044.51 1044.31 1044.15 1043.95 1043.75 1043.55 1043.35 1043.19 1042.99 1042.75 1042.51 1042.27 1042.03 1041.75 1041.43 1041.07
1047.91 1047.87 1047.83 1047.79 1047.79 1047.59 1047.63 1047.55 1047.51 1047.43 1047.35 1047.35 1047.23 1047.03 1046.95 1046.71 1046.55 1046.31 1046.15 1045.95 1045.75 1045.51 1045.27 1045.03 1044.79 1044.59 1044.35 1044.19 1043.95 1043.75 1043.51 1043.23 1043.07 1042.95 1042.71 1042.51 1042.27 1041.95 1041.67 1041.39 1041.03 1040.63
1047.95 1047.87 1047.83 1047.79 1047.71 1047.59 1047.55 1047.51 1047.47 1047.31 1047.23 1047.19 1047.11 1046.95 1046.79 1046.55 1046.31 1046.11 1045.91 1045.67 1045.51 1045.27 1045.03 1044.83 1044.59 1044.39 1044.15 1043.91 1043.71 1043.51 1043.31 1043.07 1042.87 1042.67 1042.43 1042.15 1041.87 1041.51 1041.15 1040.83 1040.47 1040.07
1047.91 1047.83 1047.79 1047.71 1047.59 1047.51 1047.43 1047.39 1047.31 1047.27 1047.19 1047.03 1046.87 1046.71 1046.55 1046.35 1046.11 1045.91 1045.63 1045.43 1045.23 1044.99 1044.79 1044.55 1044.27 1044.07 1043.87 1043.63 1043.43 1043.19 1042.99 1042.79 1042.51 1042.31 1042.07 1041.75 1041.35 1040.95 1040.55 1040.23 1039.83 1039.39
1047.75 1047.67 1047.55 1047.51 1047.43 1047.39 1047.35 1047.35 1047.31 1047.15 1047.03 1046.87 1046.63 1046.47 1046.27 1046.07 1045.83 1045.59 1045.35 1045.11 1044.87 1044.63 1044.43 1044.23 1043.95 1043.71 1043.47 1043.27 1043.07 1042.87 1042.67 1042.47 1042.23 1041.95 1041.63 1041.27 1040.75 1040.31 1039.87 1039.47 1039.07 1038.67
1047.55 1047.43 1047.43 1047.43 1047.39 1047.35 1047.31 1047.19 1047.11 1046.95 1046.79 1046.55 1046.35 1046.19 1045.95 1045.71 1045.51 1045.23 1044.99 1044.75 1044.51 1044.31 1044.07 1043.83 1043.59 1043.27 1043.03 1042.83 1042.71 1042.55 1042.39 1042.15 1041.91 1041.63 1041.19 1040.67 1040.07 1039.55 1039.11 1038.67 1038.27 1037.79
1047.35 1047.35 1047.31 1047.31 1047.31 1047.27 1047.19 1047.03 1046.87 1046.67 1046.47 1046.23 1046.03 1045.79 1045.55 1045.31 1045.11 1044.91 1044.67 1044.39 1044.15 1043.91 1043.67 1043.51 1043.27 1042.91 1042.63 1042.51 1042.39 1042.19 1042.03 1041.71 1041.39 1040.99 1040.51 1039.91 1039.35 1038.79 1038.23 1037.67 1037.15 1036.79
1047.23 1047.23 1047.19 1047.15 1047.15 1047.03 1046.87 1046.67 1046.47 1046.27 1046.07 1045.91 1045.67 1045.43 1045.19 1044.95 1044.75 1044.59 1044.39 1044.15 1043.79 1043.43 1043.27 1043.07 1042.83 1042.47 1042.15 1042.11 1041.99 1041.75 1041.43 1041.03 1040.51 1039.99 1039.51 1039.03 1038.55 1037.95 1037.19 1036.67 1036.31 1036.07
1047.11 1046.99 1046.95 1046.95 1046.75 1046.63 1046.47 1046.31 1046.11 1045.95 1045.75 1045.55 1045.27 1045.03 1044.79 1044.59 1044.39 1044.19 1043.99 1043.75 1043.47 1043.19 1042.91 1042.63 1042.27 1041.95 1041.75 1041.43 1040.71 1040.07 1039.67 1039.23 1038.87 1038.35 1037.99 1037.55 1037.15 1036.71 1036.31 1035.99 1035.59 1035.43
1046.83 1046.71 1046.71 1046.59 1046.47 1046.31 1046.11 1045.95 1045.79 1045.63 1045.43 1045.15 1044.87 1044.63 1044.39 1044.15 1043.99 1043.83 1043.59 1043.31 1042.99 1042.67 1042.43 1042.07 1041.75 1041.39 1041.19 1040.51 1039.91 1039.27 1038.83 1038.47 1038.03 1037.59 1037.15 1036.71 1036.35 1036.03 1035.67 1035.35 1035.15 1035.11
1046.55 1046.47 1046.35 1046.23 1046.07 1045.95 1045.79 1045.63 1045.47 1045.23 1044.99 1044.75 1044.51 1044.31 1044.15 1043.95 1043.67 1043.39 1043.11 1042.95 1042.63 1042.23 1041.83 1041.55 1041.27 1040.95 1040.71 1040.03 1039.35 1038.71 1038.15 1037.83 1037.35 1036.91 1036.51 1036.03 1035.75 1035.51 1035.27 1035.07 1034.79 1034.67
1046.15 1046.07 1045.95 1045.79 1045.67 1045.55 1045.43 1045.27 1045.07 1044.83 1044.55 1044.39 1044.15 1043.95 1043.67 1043.35 1043.07 1042.87 1042.63 1042.43 1042.23 1041.95 1041.39 1040.91 1040.63 1040.43 1040.19 1039.51 1038.79 1038.11 1037.55 1037.07 1036.71 1036.39 1036.03 1035.75 1035.47 1035.23 1035.07 1034.79 1034.59 1034.39
1045.79 1045.63 1045.55 1045.43 1045.31 1045.19 1045.03 1044.87 1044.67 1044.39 1044.27 1044.07 1043.75 1043.51 1043.27 1042.91 1042.59 1042.35 1042.15 1042.03 1041.83 1041.67 1041.19 1040.43 1039.91 1039.91 1039.51 1038.79 1038.19 1037.63 1037.11 1036.75 1036.47 1036.27 1035.91 1035.55 1035.19 1034.91 1034.67 1034.43 1034.23 1034.07
1045.39 1045.35 1045.23 1045.15 1045.03 1044.87 1044.67 1044.43 1044.27 1044.11 1043.99 1043.79 1043.55 1043.15 1042.83 1042.55 1042.19 1041.95 1041.67 1041.43 1041.27 1041.23 1040.87 1039.95 1039.19 1039.31 1038.99 1038.35 1037.87 1037.47 1037.03 1036.79 1036.43 1036.19 1035.79 1035.35 1034.91 1034.59 1034.27 1033.91 1033.63 1033.43
1045.11 1045.11 1044.99 1044.91 1044.71 1044.51 1044.31 1044.11 1043.91 1043.75 1043.59 1043.35 1043.11 1042.83 1042.55 1042.19 1041.87 1041.55 1041.27 1041.03 1040.71 1040.63 1040.47 1039.71 1038.71 1038.51 1038.67 1038.27 1037.79 1037.35 1037.03 1036.83 1036.51 1036.03 1035.43 1034.87 1034.35 1034.03 1033.71 1033.35 1033.03 1032.83
1044.83 1044.83 1044.75 1044.59 1044.47 1044.31 1044.07 1043.79 1043.63 1043.47 1043.31 1043.07 1042.83 1042.47 1042.19 1041.99 1041.71 1041.23 1040.87 1040.63 1040.31 1039.95 1039.83 1039.47 1038.39 1037.95 1038.27 1038.07 1037.51 1037.03 1036.83 1036.59 1036.19 1035.67 1035.03 1034.47 1033.83 1033.51 1033.15 1032.71 1032.39 1032.31
1044.67 1044.59 1044.47 1044.31 1044.19 1044.03 1043.87 1043.71 1043.51 1043.23 1043.03 1042.95 1042.67 1042.39 1042.03 1041.75 1041.39 1040.87 1040.31 1040.03 1039.75 1039.47 1039.27 1039.19 1038.39 1037.55 1037.55 1037.63 1037.27 1036.67 1036.39 1036.23 1035.79 1035.19 1034.55 1033.95 1033.51 1032.91 1032.67 1032.27 1031.87 1031.75
1044.31 1044.27 1044.19 1044.11 1043.99 1043.83 1043.71 1043.59 1043.39 1043.19 1042.91 1042.71 1042.51 1042.27 1041.75 1041.39 1041.07 1040.59 1040.07 1039.51 1039.35 1039.07 1038.55 1038.27 1037.95 1037.23 1036.91 1036.95 1036.79 1036.31 1035.95 1035.87 1035.63 1035.15 1034.39 1033.91 1033.55 1033.03 1032.35 1031.95 1031.71 1031.31
Thickness
5293 5291 5290 5288 5285 5281 5278 5275 5272 5269 5267 5264 5261 5258 5256 5252 5250 5247 5244 5241 5238 5236 5233 5230 5227 5224 5221 5218 5214 5210 5207 5204 5201 5198 5194 5188 5184 5179 5174 5169 5164 5158
5285 5284 5281 5279 5276 5272 5269 5265 5263 5260 5257 5255 5252 5249 5246 5243 5240 5238 5235 5232 5230 5227 5223 5220 5217 5214 5211 5207 5203 5199 5196 5192 5188 5184 5180 5174 5169 5165 5160 5154 5148 5141
5277 5276 5272 5269 5267 5263 5260 5257 5254 5251 5249 5246 5243 5240 5237 5234 5231 5228 5226 5223 5221 5217 5214 5211 5207 5204 5200 5195 5191 5187 5183 5178 5174 5171 5164 5159 5155 5150 5145 5139 5133 5126
5270 5267 5264 5261 5258 5255 5252 5249 5246 5243 5240 5237 5234 5231 5228 5225 5222 5219 5217 5214 5211 5207 5204 5200 5197 5194 5189 5183 5178 5174 5170 5165 5160 5156 5150 5144 5140 5135 5131 5125 5119 5113
5261 5258 5256 5253 5250 5247 5244 5241 5238 5235 5231 5228 5225 5222 5219 5216 5213 5210 5207 5204 5201 5197 5193 5189 5185 5182 5177 5171 5165 5160 5156 5152 5147 5142 5136 5131 5126 5122 5118 5113 5107 5102
5253 5250 5248 5245 5242 5239 5236 5233 5230 5226 5222 5219 5216 5213 5210 5207 5203 5201 5197 5193 5190 5185 5181 5177 5173 5169 5164 5158 5152 5148 5143 5138 5134 5128 5122 5119 5114 5110 5107 5103 5099 5095
5245 5243 5240 5236 5233 5231 5228 5224 5221 5217 5214 5210 5207 5203 5200 5197 5193 5189 5186 5182 5178 5174 5170 5166 5162 5157 5152 5147 5141 5135 5130 5125 5120 5116 5110 5107 5105 5102 5098 5095 5093 5090
5237 5234 5232 5229 5225 5222 5219 5215 5211 5208 5205 5200 5197 5194 5190 5186 5183 5179 5175 5171 5167 5164 5159 5156 5151 5147 5141 5136 5130 5124 5118 5113 5109 5105 5101 5099 5097 5095 5093 5090 5088 5086
5229 5226 5224 5220 5217 5214 5210 5206 5202 5198 5195 5192 5188 5184 5181 5177 5173 5169 5165 5161 5158 5153 5150 5145 5140 5135 5130 5124 5119 5114 5109 5105 5100 5098 5095 5094 5092 5091 5089 5087 5084 5083
5221 5218 5215 5212 5208 5205 5201 5197 5193 5190 5186 5183 5179 5175 5172 5168 5164 5160 5156 5152 5148 5143 5138 5134 5129 5124 5119 5114 5109 5105 5102 5098 5095 5093 5090 5089 5089 5087 5087 5085 5082 5081
5214 5211 5207 5204 5201 5197 5194 5189 5185 5181 5177 5175 5171 5167 5164 5160 5155 5151 5147 5142 5138 5133 5128 5123 5119 5115 5110 5106 5102 5098 5096 5094 5091 5089 5087 5086 5086 5085 5084 5083 5081 5080
5206 5204 5200 5198 5193 5190 5186 5181 5177 5173 5169 5166 5162 5159 5155 5150 5145 5141 5137 5133 5128 5123 5119 5114 5109 5106 5103 5100 5096 5093 5092 5091 5089 5088 5086 5084 5084 5083 5082 5082 5080 5077
5200 5197 5194 5190 5186 5182 5177 5172 5168 5164 5161 5157 5154 5150 5145 5141 5137 5131 5127 5123 5119 5114 5109 5105 5101 5099 5097 5095 5092 5091 5089 5088 5087 5085 5084 5083 5082 5082 5080 5079 5079 5075
5193 5190 5187 5182 5178 5174 5168 5164 5159 5155 5152 5149 5145 5141 5136 5131 5127 5122 5118 5113 5109 5105 5100 5097 5095 5094 5093 5092 5090 5089 5088 5087 5086 5083 5083 5083 5081 5081 5080 5078 5078 5075
5186 5182 5179 5174 5170 5165 5160 5155 5151 5147 5144 5141 5136 5132 5127 5123 5118 5113 5110 5105 5101 5098 5094 5091 5090 5090 5091 5090 5088 5088 5087 5085 5085 5083 5083 5083 5082 5080 5080 5079 5078 5076
5179 5175 5171 5166 5162 5157 5152 5148 5143 5140 5136 5132 5128 5123 5117 5114 5109 5105 5101 5098 5095 5093 5089 5087 5087 5088 5090 5089 5087 5087 5088 5087 5087 5086 5084 5084 5083 5082 5082 5081 5078 5076
5171 5167 5163 5158 5154 5149 5144 5140 5136 5132 5128 5124 5120 5115 5110 5106 5102 5098 5094 5092 5090 5088 5087 5085 5087 5088 5089 5088 5088 5088 5089 5089 5089 5089 5087 5086 5084 5083 5082 5081 5079 5075
5164 5160 5156 5151 5147 5142 5137 5132 5128 5124 5120 5117 5112 5107 5103 5098 5095 5092 5089 5088 5087 5086 5086 5085 5086 5088 5088 5088 5089 5089 5089 5089 5089 5088 5088 5086 5084 5083 5081 5079 5077 5073
5158 5154 5149 5145 5139 5134 5129 5124 5120 5117 5113 5110 5105 5099 5096 5092 5089 5088 5085 5085 5085 5085 5086 5086 5086 5087 5087 5087 5088 5089 5088 5088 5089 5087 5086 5085 5083 5080 5078 5076 5073 5070
5152 5147 5142 5138 5132 5126 5122 5117 5113 5110 5106 5102 5098 5093 5090 5088 5086 5085 5084 5083 5084 5084 5085 5086 5086 5086 5086 5086 5087 5088 5088 5088 5087 5086 5084 5082 5079 5077 5074 5072 5069 5066
5145 5140 5135 5130 5125 5120 5115 5111 5107 5103 5099 5095 5091 5088 5086 5084 5084 5084 5084 5083 5083 5083 5084 5086 5087 5086 5085 5086 5086 5085 5086 5086 5084 5083 5082 5080 5077 5074 5071 5069 5065 5062
5137 5133 5127 5122 5118 5113 5108 5104 5100 5097 5093 5089 5086 5084 5082 5082 5082 5083 5083 5083 5083 5082 5083 5086 5087 5086 5084 5084 5084 5083 5082 5082 5081 5080 5079 5077 5076 5073 5070 5067 5063 5059
5129 5125 5119 5114 5110 5105 5101 5097 5093 5091 5087 5084 5082 5081 5080 5081 5082 5082 5082 5083 5083 5082 5082 5084 5087 5086 5083 5081 5081 5079 5078 5078 5077 5077 5077 5076 5075 5072 5069 5066 5063 5058
5121 5117 5112 5107 5102 5098 5093 5090 5087 5084 5082 5080 5079 5079 5079 5079 5080 5082 5083 5083 5083 5083 5081 5082 5086 5086 5082 5079 5078 5077 5075 5074 5074 5074 5074 5074 5073 5071 5068 5065 5062 5058
5113 5109 5105 5100 5095 5090 5086 5083 5081 5080 5078 5077 5076 5077 5078 5079 5079 5081 5083 5083 5083 5083 5082 5081 5084 5085 5081 5078 5076 5075 5073 5072 5071 5071 5072 5071 5070 5069 5067 5064 5061 5057
5106 5102 5097 5092 5088 5084 5080 5077 5076 5076 5075 5074 5075 5075 5076 5078 5078 5080 5083 5084 5083 5083 5083 5082 5082 5083 5082 5078 5075 5073 5072 5069 5067 5067 5068 5068 5066 5066 5065 5063 5059 5055